[[{"header":{"parameterUnit":"m.s-1","parameterCategory":1,"la1":30.2991,"la2":30.254,"lo1":-89.0895,"lo2":-89.0444,"dy":0.0017,"dx":0.0017,"nx":28,"ny":28,"refTime":"2025-06-04T09:00:00:Z","depth":0,"parameterNumber":2,"parameterNumberName":"U-component_of_WINDS"},"data":[0,0,0,0,0,0,0,0,0,0,0,0,0,0,0,0,0,0,0,0,0,0,0,0,0,0,0,0,0,0,0,0,0,0,0,0,0,0,0,0,0,0,0,0,0,0,0,0,0,0,0,0,0,0,0,0,0,0,-1.0452,-1.0451,0,-1.0338,-1.0337,-1.0335,-1.0279,-1.028,-1.028,-1.028,-1.0157,-1.0154,-1.0151,0,0,0,0,0,0,0,0,0,0,0,0,0,-1.0618,-1.0615,-1.0452,-1.0451,-1.045,-1.0338,-1.0337,-1.0335,-1.0279,-1.028,-1.028,-1.028,-1.0158,-1.0154,-1.015,0,0,0,0,0,0,0,0,0,0,0,0,0,-1.0529,-1.0614,-1.0453,-1.0409,-1.0403,-1.0339,-1.0337,-1.0335,-1.0279,-1.028,-1.028,-1.028,-1.016,-1.0155,-1.015,-1.0119,0,0,-1.0135,-1.0133,0,0,0,0,0,0,0,0,-1.0534,-1.0523,-1.0416,-1.0411,-1.0406,-1.0323,-1.035,-1.0262,-1.0279,-1.0326,-1.028,-1.028,-1.0212,-1.0203,-1.0181,-1.0113,-1.0108,-1.0134,-1.0131,-1.0129,-1.0128,0,0,0,0,0,0,0,-1.054,-1.0527,-1.0407,-1.0415,-1.0408,-1.0393,-1.038,-1.0333,-1.027,-1.0322,-1.0318,-1.0306,-1.0209,-1.0186,-1.0178,-1.0106,-1.0135,-1.013,-1.0127,-1.0125,-1.0005,-1.0005,0,0,0,0,0,0,-1.0554,-1.0533,-1.0411,-1.0404,-1.0471,-1.039,-1.0376,-1.035,-1.0271,-1.0259,-1.0306,-1.0303,-1.0194,-1.0184,-1.0173,-1.0131,-1.0129,-1.0125,-1.0122,-1.0005,-1.0005,-1.0005,0,0,0,0,0,0,-1.0558,-1.0544,-1.0415,-1.0467,-1.0449,-1.0387,-1.0358,-1.0347,-1.0324,-1.0258,-1.0246,-1.0294,-1.0194,-1.018,-1.0133,-1.0126,-1.0122,-1.0118,-1.0006,-1.0005,-1.0005,-1.0046,0,0,0,0,0,0,-1.0563,-1.0546,-1.0534,-1.0467,-1.0447,-1.0378,-1.0358,-1.0345,-1.0316,-1.0312,-1.0244,-1.0232,-1.0193,-1.014,-1.0128,-1.0119,-1.0114,-1.0006,-1.0005,-1.0005,-1.0045,-1.0047,-1.0049,0,0,0,0,0,-1.0569,-1.0549,-1.0534,-1.0519,-1.0432,-1.0378,-1.0366,-1.0323,-1.0316,-1.0303,-1.0261,-1.0235,-1.0129,-1.0136,-1.0121,-1.0111,-1.0006,-1.0005,-1.0005,-1.0044,-1.0047,-1.0049,0,0,0,0,0,0,-1.0615,-1.054,-1.0522,-1.048,-1.0436,-1.0369,-1.0352,-1.0327,-1.0283,-1.028,-1.0227,-1.0212,-1.0169,-1.0135,-1.0144,-1.0076,-1.0065,-1.0061,-1.01,-1.0102,-1.0104,-1.0112,-1.011,0,0,0,0,0,-1.0621,-1.0586,-1.0521,-1.049,-1.0469,-1.0415,-1.0389,-1.036,-1.0311,-1.0292,-1.0246,-1.0198,-1.0154,-1.0126,-1.0082,-1.004,-1.0024,-1.0026,-1.0028,-1.003,-1.0027,-1.0002,-1.0001,-1.0003,-1.0003,-1.0003,0,0,-1.0632,-1.0586,-1.0567,-1.0498,-1.0461,-1.0424,-1.0399,-1.0361,-1.0332,-1.0285,-1.0238,-1.0203,-1.0146,-1.0101,-1.0079,-1.0072,-1.0023,-1.0029,-1.0031,-1.0027,-1.0001,-1.0001,-1.0001,-1.0003,-1.0003,-1.0003,0,0,-1.0633,-1.0595,-1.0565,-1.0529,-1.0473,-1.0436,-1.0429,-1.0365,-1.0341,-1.0293,-1.0257,-1.0221,-1.0147,-1.0107,-1.0078,-1.0064,-1.0038,-1.0051,-1.0061,-1.0037,-1.0037,-1.0036,-1.003,-1.0029,-1.0048,-1.0049,-1.0049,0,-1.0653,-1.0597,-1.0553,-1.0517,-1.0487,-1.0445,-1.0414,-1.0379,-1.0311,-1.0291,-1.0284,-1.019,-1.0148,-1.0094,-1.009,-1.0068,-1.0057,-1.0058,-1.0041,-1.004,-1.0039,-1.0032,-1.003,-1.0051,-1.005,-1.005,-1.005,0,-1.0624,-1.0585,-1.0568,-1.0505,-1.0473,-1.044,-1.0389,-1.0362,-1.0335,-1.0299,-1.025,-1.02,-1.0144,-1.0129,-1.0102,-1.007,-1.0067,-1.0051,-1.0039,-1.0041,-1.0034,-1.0032,-1.0053,-1.0053,-1.0052,-1.0052,0,0,-1.065,-1.0564,-1.0558,-1.0529,-1.0464,-1.0432,-1.0396,-1.0344,-1.0321,-1.0275,-1.0243,-1.0181,-1.0166,-1.0132,-1.01,-1.0079,-1.007,-1.0065,-1.0063,-1.0067,-1.0031,-1.0043,-1.0041,-1.0053,-1.0052,-1.0052,-1.0036,0,-1.0641,-1.0576,-1.0535,-1.0486,-1.045,-1.0409,-1.0377,-1.0333,-1.0299,-1.0261,-1.0222,-1.0179,-1.0163,-1.0142,-1.0119,-1.0076,-1.0062,-1.0077,-1.002,-1.0019,-1.0035,-1.0038,-1.005,-1.0038,-1.0033,-1.0032,-1.0032,0,-1.0622,-1.0579,-1.0527,-1.0466,-1.0449,-1.0421,-1.037,-1.0335,-1.0283,-1.026,-1.0223,-1.019,-1.0149,-1.0141,-1.0082,-1.0093,-1.0067,-1.0042,-1.0041,-1.0033,-1.0025,-1.0029,-1.0033,-1.0031,-1.0027,-1.0028,-1.0028,0,-1.0645,-1.0574,-1.0534,-1.051,-1.0438,-1.0419,-1.0388,-1.0337,-1.0308,-1.0262,-1.0243,-1.0192,-1.0164,-1.0125,-1.008,-1.0078,-1.0025,-1.0013,-1.0003,-1.0004,-0.9993,-0.9994,-0.9991,-0.9978,-0.9978,-0.9978,-0.9978,0,-1.0639,-1.0608,-1.0543,-1.0518,-1.0482,-1.0435,-1.04,-1.0366,-1.032,-1.0287,-1.0248,-1.0217,-1.0159,-1.012,-1.0084,-1.004,-1.0028,-1.0006,-0.9997,-1.0009,-1.0012,-0.9991,-0.999,-0.9977,-0.9977,-0.9977,-0.9977,0,-1.0659,-1.0614,-1.0567,-1.0503,-1.0487,-1.0463,-1.0407,-1.0381,-1.0344,-1.0302,-1.0289,-1.0231,-1.0184,-1.0135,-1.0069,-1.0045,-1.0002,-0.999,-1.002,-1.0015,-1.0007,-1.0008,-0.999,-0.9985,-0.9976,-0.9976,-0.9976,0,-1.0657,-1.0633,-1.0567,-1.0543,-1.0513,-1.0474,-1.0445,-1.0397,-1.0368,-1.0307,-1.0288,-1.0238,-1.0195,-1.012,-1.0071,-1.0021,-1.0006,-1.0003,-0.9998,-1.0011,-1.0005,-1.0007,-1.0004,-1.0005,-1.0005,-1.0006,-1.0006,0,-1.0659,-1.0639,-1.0599,-1.0551,-1.0518,-1.0477,-1.0435,-1.0417,-1.0361,-1.0329,-1.0281,-1.0248,-1.0183,-1.0133,-1.0077,-1.0042,-1.0014,-1.0008,-1.0003,-1.0015,-1.0033,-1.0022,-1.0025,-1.0008,-1.0008,-1.0008,-1.0008,-1.0008,-1.0668,-1.0644,-1.0594,-1.0551,-1.0515,-1.0477,-1.0448,-1.0409,-1.0369,-1.0313,-1.0287,-1.0238,-1.0186,-1.0109,-1.0075,-1.0035,-1.0027,-1.002,-1.0018,-1.0016,-1.0019,-1.0041,-1.0025,-1.0024,-1.0024,-1.0024,-1.0024,0,-1.0667,-1.0633,-1.0594,-1.0537,-1.0503,-1.0482,-1.0434,-1.0406,-1.0364,-1.0319,-1.0279,-1.0223,-1.0174,-1.0122,-1.007,-1.0048,-1.0034,-1.0036,-1.0036,-1.0029,-1.0029,-1.0039,-1.0048,-1.0048,-1.0048,-1.0048,-1.0048,-1.0048,-1.0663,-1.0622,-1.0595,-1.0535,-1.0501,-1.0455,-1.0429,-1.0393,-1.0357,-1.0297,-1.0257,-1.0224,-1.0175,-1.012,-1.0074,-1.0059,-1.0041,-1.0047,-1.0029,-1.0031,-1.0029,-1.0027,-1.0036,-1.0044,-1.0044,-1.0031,-1.0031,-1.0031]},{"header":{"parameterUnit":"m.s-1","parameterCategory":1,"la1":30.2991,"la2":30.254,"lo1":-89.0895,"lo2":-89.0444,"dy":0.0017,"dx":0.0017,"nx":28,"ny":28,"refTime":"2025-06-04T09:00:00:Z","depth":0,"parameterNumber":3,"parameterNumberName":"V-component_of_WINDS"},"data":[0,0,0,0,0,0,0,0,0,0,0,0,0,0,0,0,0,0,0,0,0,0,0,0,0,0,0,0,0,0,0,0,0,0,0,0,0,0,0,0,0,0,0,0,0,0,0,0,0,0,0,0,0,0,0,0,0,0,4.2359,4.236,0,4.2457,4.2458,4.2459,4.2455,4.2453,4.2452,4.245,4.2549,4.2553,4.2557,0,0,0,0,0,0,0,0,0,0,0,0,0,4.2171,4.2174,4.2359,4.2361,4.2362,4.2456,4.2458,4.2459,4.2455,4.2453,4.2451,4.245,4.2548,4.2552,4.2557,0,0,0,0,0,0,0,0,0,0,0,0,0,4.2259,4.2176,4.2359,4.2371,4.2373,4.2456,4.2458,4.2459,4.2455,4.2453,4.2451,4.2449,4.2546,4.2552,4.2558,4.2635,0,0,4.2576,4.2578,0,0,0,0,0,0,0,0,4.2254,4.2266,4.2368,4.237,4.2373,4.2441,4.2427,4.2518,4.2456,4.2424,4.245,4.2448,4.2515,4.2523,4.2546,4.264,4.2644,4.2576,4.258,4.2582,4.2584,0,0,0,0,0,0,0,4.2248,4.2262,4.2398,4.237,4.2373,4.2372,4.2382,4.2445,4.248,4.2427,4.2426,4.2438,4.2516,4.254,4.2548,4.2645,4.2576,4.2581,4.2585,4.2587,4.2811,4.2813,0,0,0,0,0,0,4.2239,4.2257,4.2395,4.2401,4.2307,4.2377,4.2388,4.2421,4.2479,4.2486,4.244,4.2438,4.2531,4.2541,4.2552,4.2648,4.2582,4.2588,4.2591,4.2808,4.2811,4.2814,0,0,0,0,0,0,4.2235,4.2252,4.2391,4.2329,4.2346,4.2382,4.242,4.2424,4.2449,4.2489,4.2495,4.2458,4.253,4.2543,4.2615,4.2652,4.259,4.2596,4.2805,4.2809,4.2813,4.2841,0,0,0,0,0,0,4.223,4.225,4.2279,4.2329,4.235,4.2452,4.2422,4.2428,4.2459,4.2457,4.2508,4.2515,4.2529,4.2606,4.2621,4.2659,4.26,4.2802,4.2807,4.2811,4.2837,4.2845,4.2852,0,0,0,0,0,4.2223,4.2283,4.2281,4.2298,4.2387,4.2454,4.2466,4.2482,4.2462,4.2492,4.2519,4.2513,4.2645,4.2614,4.263,4.267,4.28,4.2806,4.2811,4.2833,4.2843,4.2852,0,0,0,0,0,0,4.2235,4.2289,4.2288,4.2365,4.2406,4.2454,4.2492,4.2492,4.2538,4.2534,4.2552,4.2564,4.2636,4.266,4.2624,4.2749,4.272,4.2729,4.2731,4.2741,4.2749,4.2742,4.2605,0,0,0,0,0,4.2247,4.2297,4.2341,4.2406,4.2426,4.2456,4.2485,4.2495,4.2537,4.2554,4.2585,4.2626,4.2677,4.271,4.2759,4.284,4.2852,4.2876,4.2883,4.2889,4.2897,4.2945,4.2956,4.2832,4.2832,4.2832,0,0,4.2271,4.2307,4.2337,4.2409,4.2441,4.2494,4.247,4.2525,4.2565,4.2562,4.2633,4.2657,4.2704,4.2782,4.2817,4.2804,4.2934,4.2896,4.2901,4.2906,4.2952,4.2963,4.2974,4.2836,4.2835,4.2834,0,0,4.2343,4.2374,4.2433,4.2466,4.2516,4.2535,4.2549,4.2598,4.2615,4.2686,4.2686,4.2733,4.282,4.2854,4.2883,4.2971,4.2969,4.2987,4.3027,4.3073,4.3083,4.3092,4.3125,4.3137,4.2994,4.2994,4.2994,0,4.2367,4.2446,4.2462,4.252,4.2552,4.2553,4.2613,4.2644,4.2707,4.273,4.2714,4.2825,4.2856,4.2943,4.2965,4.2988,4.3006,4.2981,4.308,4.3089,4.3097,4.313,4.3142,4.2996,4.2996,4.2996,4.2996,0,4.2475,4.253,4.2571,4.2633,4.267,4.2728,4.2754,4.2789,4.2796,4.2818,4.2892,4.293,4.2988,4.3009,4.3015,4.3098,4.3089,4.3076,4.3047,4.3111,4.3142,4.3155,4.2999,4.2998,4.2998,4.2997,0,0,4.2556,4.2629,4.2644,4.2673,4.2729,4.2772,4.2831,4.2889,4.292,4.2963,4.3015,4.3089,4.3079,4.3112,4.3122,4.3162,4.3233,4.3145,4.3147,4.3162,4.333,4.3341,4.3355,4.3231,4.3234,4.3236,4.3327,0,4.2636,4.2741,4.2759,4.2851,4.2904,4.2906,4.2958,4.2998,4.3021,4.3069,4.3093,4.3147,4.3128,4.3148,4.3188,4.3216,4.3267,4.3209,4.3281,4.3283,4.3271,4.337,4.3381,4.3465,4.3339,4.3341,4.3342,0,4.2743,4.2791,4.2889,4.2941,4.2963,4.3009,4.3065,4.311,4.3157,4.3171,4.3209,4.3215,4.3278,4.3245,4.3333,4.3293,4.3324,4.3342,4.3346,4.3354,4.3318,4.3384,4.3492,4.3506,4.3361,4.336,4.3358,0,4.2795,4.2885,4.2956,4.2981,4.3042,4.3075,4.3101,4.3146,4.3181,4.3229,4.3252,4.3307,4.3338,4.3381,4.3402,4.3376,4.349,4.3458,4.3504,4.3504,4.3529,4.3527,4.3646,4.3545,4.3545,4.3545,4.3544,0,4.2883,4.2944,4.2981,4.3025,4.3093,4.3113,4.3181,4.3207,4.3247,4.3297,4.3302,4.3348,4.3373,4.3424,4.3441,4.3513,4.3526,4.354,4.3544,4.3541,4.3539,4.3562,4.3557,4.3548,4.3547,4.3547,4.3546,0,4.2954,4.2981,4.3059,4.3112,4.3126,4.3175,4.322,4.3263,4.3286,4.3349,4.3365,4.3401,4.3461,4.3487,4.356,4.3572,4.3655,4.3654,4.364,4.3642,4.3687,4.3684,4.3826,4.3847,4.373,4.3731,4.3732,0,4.301,4.3057,4.3115,4.3149,4.3177,4.3232,4.3268,4.329,4.3327,4.3385,4.3422,4.3483,4.3532,4.3629,4.3662,4.3719,4.3721,4.3767,4.3729,4.3725,4.3724,4.3722,4.3728,4.3774,4.3775,4.3776,4.3777,0,4.3106,4.3118,4.3169,4.3227,4.327,4.3316,4.3361,4.3388,4.3417,4.3459,4.3522,4.3561,4.3637,4.3698,4.3758,4.3786,4.3788,4.3788,4.3803,4.38,4.3792,4.38,4.3661,4.3785,4.3784,4.3784,4.3783,4.3783,4.3172,4.3216,4.3264,4.3322,4.3359,4.3401,4.3446,4.3475,4.3527,4.3592,4.3602,4.3669,4.3717,4.3797,4.3828,4.3882,4.387,4.389,4.3895,4.3901,4.3905,4.3782,4.3892,4.3892,4.3892,4.3892,4.3892,0,4.3271,4.3303,4.3356,4.342,4.3467,4.3464,4.3514,4.3553,4.3613,4.3657,4.3707,4.378,4.384,4.3878,4.3939,4.3975,4.3977,4.399,4.3989,4.3996,4.391,4.3893,4.3988,4.3988,4.3988,4.3988,4.3988,4.3988,4.3328,4.3402,4.342,4.3512,4.3544,4.361,4.364,4.368,4.3716,4.3798,4.3848,4.3873,4.3916,4.398,4.4035,4.4045,4.4068,4.4083,4.4092,4.4012,4.4002,4.3992,4.3977,4.4087,4.4087,4.4174,4.4175,4.4176]}]]